Regional Weather Roundup
Issued by NWS

Home | Current Version | Previous Version | Graphics & Text | Print | Product List | Glossary On
Versions: 1 2 3 4 5 6 7 8 9 10 11 12 13 14 15 16 17 18 19 20 21 22 23 24 25 26 27
000
ASUS45 KBOU 201507
RWRCO

WEATHER ROUNDUP FOR COLORADO
NATIONAL WEATHER SERVICE DENVER/BOULDER CO
900 AM MDT THU JUL 20 2017

NOTE: "FAIR" INDICATES FEW OR NO CLOUDS BELOW 12000 FEET WITH NO
SIGNIFICANT WEATHER AND/OR OBSTRUCTIONS TO VISIBILITY.

COZ001>005-013-030-031-201600-
...NORTHWEST COLORADO...

CITY           SKY/WX    TMP DP  RH WIND       PRES   REMARKS
CRAIG          FAIR      68  55  63 CALM      30.32R
HAYDEN         FAIR      68  52  56 E3        30.33S
MEEKER         FAIR      68  57  68 E3        30.33R
RABBIT EARS PA FAIR      59  45  58 CALM      30.62S
STEAMBOAT SPGS FAIR      64  53  65 CALM      30.36R
WALDEN         FAIR      61  48  63 E3        30.46S
$$

COZ006>008-011-201600-
...WEST CENTRAL VALLEYS...

CITY           SKY/WX    TMP DP  RH WIND       PRES   REMARKS
GRAND JUNCTION FAIR      76  61  59 SE10      30.21S
MONTROSE       FAIR      72  56  57 SW3       30.30S
EAGLE          SUNNY     66  55  68 CALM      30.39S
RIFLE          FAIR      71  56  58 CALM      30.28S
DELTA          FAIR      76  56  50 E5        30.27S
NUCLA          NOT AVBL
$$

COZ017>023-064>068-201600-
...SOUTHWEST COLORADO...

CITY           SKY/WX    TMP DP  RH WIND       PRES   REMARKS
DURANGO        FAIR      71  47  42 E7        30.37R
CORTEZ         FAIR      75  55  49 SW6       30.29R
PAGOSA SPRINGS FAIR      68  49  51 CALM      30.45R
TELLURIDE      FAIR      63  47  55 CALM      30.55S
WOLF CREEK PAS FAIR      54  43  66 CALM      30.80R
$$

COZ009-010-012-014-032>034-037-058>063-201600-
...CENTRAL COLORADO...

CITY           SKY/WX    TMP DP  RH WIND       PRES   REMARKS
ASPEN          FAIR      65  50  58 N6        30.42S
BUENA VISTA    FAIR      65  48  54 CALM      30.46S
COPPER MTN     FAIR      61  41  48 SW5       30.76R
BERTHOUD PASS  FAIR      52  36  54 NW8G24    30.78R
COTTONWOOD PAS FAIR      63  46  55 CALM      30.59S
GUNNISON       FAIR      62  50  64 NE5       30.46F
KREMMLING      FAIR      68  54  60 CALM      30.43S
LEADVILLE      FAIR      55  46  71 CALM      30.56F
SALIDA         FAIR      67  49  51 CALM      30.50F
SUNLIGHT       FAIR      55  45  67 SW9       30.68R
WILKERSON PASS FAIR      57  37  47 SW3       30.72S
$$

COZ069>075-201600-
...SAN LUIS VALLEY/SANGRE DE CRISTO MOUNTAINS...

CITY           SKY/WX    TMP DP  RH WIND       PRES   REMARKS
ALAMOSA        FAIR      66  51  58 S12       30.43S
DEL NORTE      FAIR      67  49  52 CALM      30.47S
LA VETA PASS   NOT AVBL
SAGUACHE         N/A    N/A N/A N/A MISG        N/A
$$

COZ035-036-038>040-201600-
...NORTHERN COLORADO FRONT RANGE...

CITY           SKY/WX    TMP DP  RH WIND       PRES   REMARKS
DENVER INTL AP FAIR      75  56  51 NE5       30.26S
DMNS CITY PARK   N/A     76  55  47 SE2       30.25F
AURORA         MOSUNNY   74  56  53 NW6       30.27F
FRONT RANGE AP FAIR      75  57  53 N3        30.28S
ERIE MUNI ARPT FAIR      76  53  45 CALM      30.24F
BOULDER MUN AP FAIR      75  52  43 E5        30.25F
CENTENNIAL     FAIR      73  56  54 CALM      30.28F
BROOMFIELD     FAIR      75  54  46 N5        30.28F
FORT COLLINS   FAIR      75  57  53 VRB3      30.24F
LONGMONT       FAIR      79  56  45 NE3       30.25F
$$

COZ041-046-047-076>085-087-088-201600-
...PIKES PEAK/PALMER DIVIDE AND SOUTHERN FOOTHILLS...

CITY           SKY/WX    TMP DP  RH WIND       PRES   REMARKS
COLO. SPRINGS  FAIR      78  55  44 N9        30.29S
A. F. ACADEMY  FAIR      74  53  47 N10       30.30F
SCHRIEVER AFB  FAIR      76  52  43 N13       30.29S
CHEYENNE MTN   FAIR      75  53  44 E6        30.30
ELLICOTT       FAIR     N/A N/A N/A N14       30.26F
FALCON           N/A     75  51  42 N9        30.34F
FORT CARSON    FAIR      76  55  47 N5        30.26S
LIMON          FAIR      73  61  65 NW14      30.23S
MONUMENT HILL  FAIR      70  52  52 NW7       30.38S
CANON CITY     SUNNY     81  55  41 W12       30.23S
WALSENBURG     FAIR      81  50  34 SE5       30.29F
TRINIDAD       FAIR      79  52  38 N10       30.29S
$$

COZ042>045-048>051-090-091-201600-
...NORTHEAST COLORADO...

CITY           SKY/WX    TMP DP  RH WIND       PRES   REMARKS
GREELEY ARPT   FAIR      75  60  59 NW3       30.23S
AKRON          FAIR      77  58  51 NE7       30.17F
BURLINGTON     FAIR      77  65  66 NW14      30.11S
WRAY           NOT AVBL
YUMA           FAIR      73  55  53 NE8       30.12F
STERLING       FAIR      77  63  61 NE6       30.14S
HOLYOKE        FAIR      77  63  61 NE8       30.11S
FORT MORGAN    FAIR      77  58  50 E9        30.20R
$$

COZ086-089-092>099-201600-
...SOUTHEAST COLORADO...

CITY           SKY/WX    TMP DP  RH WIND       PRES   REMARKS
PUEBLO         FAIR      81  53  37 W7        30.19S
LA JUNTA       FAIR      81  59  47 NW6       30.15F
LAMAR          FAIR      80  61  52 N7        30.09R
SPRINGFIELD      N/A     83  56  39 SW10      30.16R
$$




USA.gov is the U.S. government's official web portal to all federal, state and local government web resources and services.